Weather reports worldwide

Advertisment
Coleshill, United Kingdom (3535): temperature & dewpoint: 22.05.2017 19:00:00 - 28.05.2017 19:00:00 (BST)Coleshill, United Kingdom (3535): temperature -20cm & temperature -100cm: 22.05.2017 19:00:00 - 28.05.2017 19:00:00 (BST)Coleshill, United Kingdom (3535): wind speed & gusts: 22.05.2017 19:00:00 - 28.05.2017 19:00:00 (BST)Coleshill, United Kingdom (3535): wind direction: 22.05.2017 19:00:00 - 28.05.2017 19:00:00 (BST)Coleshill, United Kingdom (3535): reduced air pressure: 22.05.2017 19:00:00 - 28.05.2017 19:00:00 (BST)Coleshill, United Kingdom (3535): visibility: 22.05.2017 19:00:00 - 28.05.2017 19:00:00 (BST)Coleshill, United Kingdom (3535): precipitation: 22.05.2017 19:00:00 - 28.05.2017 19:00:00 (BST)
Date & Time tt [°C] td [°C] tt -20cm [°C] tt -100cm [°C] ff [km/h] ff [kn] fx [km/h] fx [kn] dd ppp [hPa] vv [km] rr [mm]
28.05.2017 19:00:00 18,4 13,1 - - 9 5 - - NNE 1016,0 30 0,0
28.05.2017 18:00:00 19,1 12,8 - - 8 4 - - NE 1016,5 40 0,0
28.05.2017 17:00:00 20,3 13,1 - - 15 8 - - N 1016,3 50 0,0
28.05.2017 16:00:00 20,7 13,6 - - 8 4 - - NNE 1017,5 35 0,0
28.05.2017 15:00:00 20,8 13,1 - - 9 5 - - N 1017,7 50 0,0
28.05.2017 14:00:00 19,7 13,0 - - 5 3 - - NNE 1018,3 50 0,0
28.05.2017 13:00:00 19,6 13,1 - - 9 5 - - NE 1018,1 50 0,0
28.05.2017 12:00:00 19,2 11,9 - - 11 6 - - NNW 1018,2 10 0,0
28.05.2017 11:00:00 18,2 12,7 - - 9 5 - - N 1018,6 50 0,0
28.05.2017 10:00:00 18,2 12,0 16,2 13,7 5 3 - - NNW 1018,2 50 0,0
28.05.2017 09:00:00 17,1 11,5 - - 15 8 - - W 1017,8 50 0,0
28.05.2017 08:00:00 16,4 11,8 - - 9 5 - - W 1017,3 50 0,0
28.05.2017 07:00:00 15,0 11,6 - - 8 4 - - WSW 1017,1 50 0,0
28.05.2017 06:00:00 13,4 11,1 - - 9 5 - - WSW 1017,4 50 0,0
28.05.2017 05:00:00 12,8 11,2 - - 5 3 - - WSW 1016,9 45 0,0
28.05.2017 04:00:00 14,1 11,5 - - 8 4 - - SW 1016,9 45 0,0
28.05.2017 03:00:00 14,2 11,6 - - 8 4 - - SSW 1017,0 50 0,0
28.05.2017 02:00:00 14,2 11,4 - - 13 7 - - SSW 1016,6 40 0,0
28.05.2017 01:00:00 14,5 11,5 - - 11 6 - - SSW 1016,6 40 0,0
28.05.2017 00:00:00 14,8 11,7 - - 15 8 - - SSW 1015,9 45 0,0
27.05.2017 23:00:00 15,3 11,8 - - 16 9 - - SSW 1015,1 50 0,0
27.05.2017 22:00:00 15,2 12,0 - - 15 8 - - S 1014,7 50 0,0
27.05.2017 21:00:00 15,8 12,3 - - 18 10 - - SSW 1013,9 50 0,0
27.05.2017 20:00:00 16,3 12,3 - - 21 11 - - SSW 1013,3 50 0,0
27.05.2017 19:00:00 17,5 12,4 - - 18 10 50 27 SW 1012,6 50 0,0
27.05.2017 18:00:00 17,3 12,9 - - 24 13 46 25 SSW 1012,2 50 0,0
27.05.2017 17:00:00 17,2 13,5 - - 29 16 55 30 SSW 1011,8 50 0,0
27.05.2017 16:00:00 16,3 13,4 - - 26 14 55 30 SSW 1011,5 50 0,0
27.05.2017 15:00:00 16,8 13,6 - - 29 16 50 27 S 1011,1 50 0,0
27.05.2017 14:00:00 16,6 13,6 - - 22 12 50 27 S 1011,1 35 0,0
27.05.2017 13:00:00 19,7 15,1 - - 24 13 48 26 S 1010,1 35 0,0
27.05.2017 12:00:00 20,8 16,4 - - 22 12 - - SSE 1009,6 35 0,0
27.05.2017 11:00:00 22,5 17,1 - - 21 11 - - SSE 1009,4 45 0,0
27.05.2017 10:00:00 20,6 17,3 16,7 13,7 15 8 - - SE 1009,2 40 0,0
27.05.2017 09:00:00 16,3 14,5 - - 5 3 - - ENE 1009,2 21 0,4
27.05.2017 08:00:00 15,7 13,4 - - 5 3 - - SW 1009,4 11 0,4
27.05.2017 07:00:00 16,4 13,2 - - 9 5 - - SSE 1011,3 28 0,0
27.05.2017 06:00:00 15,7 12,6 - - 8 4 - - SSE 1011,3 25 0,0
27.05.2017 05:00:00 14,6 11,9 - - 8 4 - - ESE 1011,3 22 0,0
27.05.2017 04:00:00 14,7 11,9 - - 9 5 - - ESE 1011,3 22 0,0
27.05.2017 03:00:00 15,1 12,3 - - 11 6 - - ESE 1012,0 23 0,0
27.05.2017 02:00:00 15,2 12,5 - - 8 4 - - ESE 1013,1 24 0,0
27.05.2017 01:00:00 15,4 12,4 - - 4 2 - - E 1013,7 26 0,0
27.05.2017 00:00:00 16,9 12,8 - - 8 4 - - ESE 1014,2 30 0,0
26.05.2017 23:00:00 17,8 13,1 - - 9 5 - - ESE 1014,3 40 0,0
26.05.2017 22:00:00 18,8 12,6 - - 8 4 - - E 1014,2 50 0,0
26.05.2017 21:00:00 21,1 12,8 - - 16 9 - - ESE 1014,0 50 0,0
26.05.2017 20:00:00 22,6 12,6 - - 18 10 - - ESE 1014,0 45 0,0
26.05.2017 19:00:00 24,0 13,8 - - 16 9 - - ESE 1014,2 50 0,0
26.05.2017 18:00:00 25,0 14,3 - - 15 8 - - E 1014,4 50 0,0
26.05.2017 17:00:00 26,2 14,1 - - 15 8 - - SE 1015,0 50 0,0
26.05.2017 16:00:00 26,1 12,9 - - 15 8 - - ESE 1015,5 50 0,0
26.05.2017 15:00:00 25,8 12,2 - - 22 12 - - SSE 1016,2 50 0,0
26.05.2017 14:00:00 25,4 12,6 - - 21 11 - - SE 1016,8 50 0,0
26.05.2017 13:00:00 24,7 12,0 - - 24 13 - - SE 1017,3 50 0,0
26.05.2017 12:00:00 24,1 14,3 - - 18 10 - - SE 1017,8 45 0,0
26.05.2017 11:00:00 22,8 13,4 - - 21 11 - - SE 1018,2 45 0,0
26.05.2017 10:00:00 21,6 13,0 - - 18 10 - - SE 1018,8 45 0,0
26.05.2017 09:00:00 20,4 12,7 - - 13 7 - - SE 1019,4 45 0,0
26.05.2017 08:00:00 18,1 12,2 - - 11 6 - - ESE 1019,7 35 0,0
26.05.2017 07:00:00 15,5 11,4 - - 8 4 - - ESE 1019,9 40 0,0
26.05.2017 06:00:00 11,9 9,7 - - 2 1 - - WSW 1020,2 40 0,0
26.05.2017 05:00:00 11,4 8,9 - - 2 1 - - SSW 1020,2 50 0,0
26.05.2017 04:00:00 11,8 7,9 - - 4 2 - - S 1020,4 50 0,0
26.05.2017 03:00:00 13,5 8,1 - - 5 3 - - SSE 1020,7 50 0,0
26.05.2017 02:00:00 14,2 8,5 - - 9 5 - - SE 1020,9 50 0,0
26.05.2017 01:00:00 15,4 11,5 - - 11 6 - - SE 1021,1 50 0,0
26.05.2017 00:00:00 - - - - - - - - - - - 0,0
25.05.2017 23:00:00 - - - - - - - - - - - 0,0
25.05.2017 22:00:00 - - - - - - - - - - - 0,0
25.05.2017 21:00:00 - - - - - - - - - - - 0,0
25.05.2017 20:00:00 - - - - - - - - - - - 0,0
25.05.2017 19:00:00 - - - - - - - - - - - 0,0
25.05.2017 18:00:00 - - - - - - - - - - - 0,0
25.05.2017 17:00:00 - - - - - - - - - - - 0,0
25.05.2017 16:00:00 - - - - - - - - - - - 0,0
25.05.2017 15:00:00 - - - - - - - - - - - 0,0
25.05.2017 14:00:00 - - - - - - - - - - - 0,0
25.05.2017 13:00:00 - - - - - - - - - - - 0,0
25.05.2017 12:00:00 - - - - - - - - - - - 0,0
25.05.2017 11:00:00 - - - - - - - - - - - -
25.05.2017 10:00:00 - - - - - - - - - - - -
25.05.2017 09:00:00 - - - - - - - - - - - -
25.05.2017 08:00:00 - - - - - - - - - - - -
25.05.2017 07:00:00 - - - - - - - - - - - -
25.05.2017 06:00:00 - - - - - - - - - - - -
25.05.2017 05:00:00 - - - - - - - - - - - -
25.05.2017 04:00:00 - - - - - - - - - - - -
25.05.2017 03:00:00 - - - - - - - - - - - -
25.05.2017 02:00:00 - - - - - - - - - - - -
25.05.2017 01:00:00 - - - - - - - - - - - -
25.05.2017 00:00:00 - - - - - - - - - - - -
24.05.2017 23:00:00 - - - - - - - - - - - -
24.05.2017 22:00:00 - - - - - - - - - - - -
24.05.2017 21:00:00 - - - - - - - - - - - -
24.05.2017 20:00:00 - - - - - - - - - - - -
24.05.2017 19:00:00 - - - - - - - - - - - -
24.05.2017 18:00:00 - - - - - - - - - - - -
24.05.2017 17:00:00 - - - - - - - - - - - -
24.05.2017 16:00:00 - - - - - - - - - - - -
24.05.2017 15:00:00 - - - - - - - - - - - -
24.05.2017 14:00:00 - - - - - - - - - - - -
24.05.2017 13:00:00 - - - - - - - - - - - -
24.05.2017 12:00:00 - - - - - - - - - - - -
24.05.2017 11:00:00 - - - - - - - - - - - -
24.05.2017 10:00:00 - - - - - - - - - - - -
24.05.2017 09:00:00 - - - - - - - - - - - -
24.05.2017 08:00:00 - - - - - - - - - - - -
24.05.2017 07:00:00 - - - - - - - - - - - -
24.05.2017 06:00:00 - - - - - - - - - - - -
24.05.2017 05:00:00 - - - - - - - - - - - -
24.05.2017 04:00:00 - - - - - - - - - - - -
24.05.2017 03:00:00 - - - - - - - - - - - -
24.05.2017 02:00:00 - - - - - - - - - - - -
24.05.2017 01:00:00 - - - - - - - - - - - -
24.05.2017 00:00:00 - - - - - - - - - - - -
23.05.2017 23:00:00 - - - - - - - - - - - -
23.05.2017 22:00:00 - - - - - - - - - - - -
23.05.2017 21:00:00 - - - - - - - - - - - -
23.05.2017 20:00:00 - - - - - - - - - - - -
23.05.2017 19:00:00 - - - - - - - - - - - -
23.05.2017 18:00:00 - - - - - - - - - - - -
23.05.2017 17:00:00 - - - - - - - - - - - -
23.05.2017 16:00:00 - - - - - - - - - - - -
23.05.2017 15:00:00 - - - - - - - - - - - -
23.05.2017 14:00:00 - - - - - - - - - - - -
23.05.2017 13:00:00 - - - - - - - - - - - -
23.05.2017 12:00:00 - - - - - - - - - - - -
23.05.2017 11:00:00 - - - - - - - - - - - -
23.05.2017 10:00:00 - - - - - - - - - - - -
23.05.2017 09:00:00 - - - - - - - - - - - -
23.05.2017 08:00:00 - - - - - - - - - - - -
23.05.2017 07:00:00 - - - - - - - - - - - -
23.05.2017 06:00:00 - - - - - - - - - - - -
23.05.2017 05:00:00 - - - - - - - - - - - -
23.05.2017 04:00:00 - - - - - - - - - - - -
23.05.2017 03:00:00 - - - - - - - - - - - -
23.05.2017 02:00:00 - - - - - - - - - - - -
23.05.2017 01:00:00 - - - - - - - - - - - -
23.05.2017 00:00:00 - - - - - - - - - - - -
22.05.2017 23:00:00 - - - - - - - - - - - -
22.05.2017 22:00:00 - - - - - - - - - - - -
22.05.2017 21:00:00 - - - - - - - - - - - -
22.05.2017 20:00:00 - - - - - - - - - - - -
22.05.2017 19:00:00 - - - - - - - - - - - -

tt = temperature
td = dewpoint
tt -20cm = temperature -20cm
tt -100cm = temperature -100cm
ff = wind speed
fx = gusts
dd = wind direction
ppp = reduced air pressure
vv = visibility
rr = precipitation

Next stations